Location: Sternwarte_Laufen
(47.9344°N, 12.9346°E)
Time: 10:21:05
(UTC+02:00)

ISS - Pass Details

Date: 16 May 2018
Orbit: 402 x 407 km, 51.6° (Epoch: 23 May)

Event Time Altitude Azimuth Distance (km) Brightness Sun altitude
Exits shadow 03:29:36 - 286° (WNW) 1,599 -1.0 -15.6°
Reaches altitude 10° 03:29:57 10° 288° (WNW) 1,459 -1.2 -15.5°
Maximum altitude 03:33:05 41° 1° (N) 602 -2.5 -15.2°
Drops below altitude 10° 03:36:12 10° 73° (ENE) 1,459 -0.2 -14.9°
Sets 03:38:21 0° 81° (E) 2,318 0.8 -14.7°
